• In Hungary
  • List of Countries
  • For 7 days
  • Water Temperature
  • Satellite Maps
  • Weather Map
  • News
  • Weather Widgets
  • user-avatar
    Login

    Hourly Weather Polana

    Today, 16 October, Tuesday

    Time Temperature Precipitation Wind Pressure Humidity
    00:00 +13°C° 0 mm 3 mps 750 mmHg 51%
    01:00 +13°C° 0 mm 3 mps 750 mmHg 52%
    02:00 +12°C° 0 mm 3 mps 750 mmHg 52%
    03:00 +12°C° 0 mm 3 mps 750 mmHg 53%
    04:00 +12°C° 0 mm 3 mps 749 mmHg 53%
    05:00 +13°C° 0 mm 2 mps 750 mmHg 53%
    06:00 +13°C° 0 mm 2 mps 750 mmHg 53%
    07:00 +13°C° 0 mm 2 mps 750 mmHg 54%
    08:00 +14°C° 0 mm 3 mps 750 mmHg 49%
    09:00 +17°C° 0 mm 3 mps 750 mmHg 45%
    10:00 +19°C° 0 mm 4 mps 750 mmHg 40%
    11:00 +20°C° 0 mm 4 mps 750 mmHg 40%
    12:00 +21°C° 0 mm 4 mps 750 mmHg 39%
    13:00 +22°C° 0 mm 4 mps 750 mmHg 39%
    14:00 +21°C° 0 mm 4 mps 750 mmHg 42%
    15:00 +20°C° 0 mm 3 mps 750 mmHg 45%
    16:00 +20°C° 0 mm 2 mps 750 mmHg 48%
    17:00 +18°C° 0 mm 2 mps 750 mmHg 52%
    18:00 +17°C° 0 mm 2 mps 750 mmHg 55%
    19:00 +15°C° 0 mm 2 mps 750 mmHg 59%
    20:00 +15°C° 0 mm 2 mps 751 mmHg 59%
    21:00 +15°C° 0 mm 2 mps 751 mmHg 60%
    22:00 +14°C° 0 mm 2 mps 751 mmHg 61%
    23:00 +14°C° 0 mm 2 mps 751 mmHg 61%

    Tomorrow, 17 October, Wednesday

    Time Temperature Precipitation Wind Pressure Humidity
    00:00 +14°C° 0 mm 2 mps 751 mmHg 61%
    01:00 +13°C° 0 mm 2 mps 751 mmHg 61%
    02:00 +13°C° 0 mm 2 mps 751 mmHg 61%
    03:00 +13°C° 0 mm 2 mps 751 mmHg 61%
    04:00 +13°C° 0 mm 2 mps 750 mmHg 61%
    05:00 +13°C° 0 mm 2 mps 751 mmHg 61%
    06:00 +13°C° 0 mm 2 mps 751 mmHg 61%
    07:00 +13°C° 0 mm 2 mps 751 mmHg 61%
    08:00 +15°C° 0 mm 2 mps 751 mmHg 56%
    09:00 +17°C° 0 mm 2 mps 751 mmHg 52%
    10:00 +19°C° 0 mm 2 mps 751 mmHg 47%
    11:00 +20°C° 0 mm 2 mps 750 mmHg 46%
    12:00 +21°C° 0 mm 3 mps 750 mmHg 45%
    13:00 +22°C° 0 mm 3 mps 750 mmHg 43%
    14:00 +21°C° 0 mm 3 mps 750 mmHg 47%
    15:00 +20°C° 0 mm 2 mps 750 mmHg 51%
    16:00 +19°C° 0 mm 2 mps 749 mmHg 55%
    17:00 +18°C° 0 mm 2 mps 749 mmHg 57%
    18:00 +17°C° 0 mm 2 mps 750 mmHg 60%
    19:00 +16°C° 0 mm 2 mps 750 mmHg 62%
    20:00 +16°C° 0 mm 2 mps 750 mmHg 62%
    21:00 +16°C° 0 mm 2 mps 750 mmHg 62%
    22:00 +15°C° 0 mm 2 mps 750 mmHg 62%
    23:00 +15°C° 0.2 mm 2 mps 750 mmHg 64%

    Day after tomorrow, 18 October, Thursday

    Time Temperature Precipitation Wind Pressure Humidity
    00:00 +15°C° 0.2 mm 2 mps 750 mmHg 66%
    01:00 +15°C° 0.2 mm 1 mps 750 mmHg 68%
    02:00 +15°C° 0 mm 1 mps 750 mmHg 69%
    03:00 +14°C° 0 mm 1 mps 750 mmHg 70%
    04:00 +14°C° 0 mm 1 mps 749 mmHg 71%
    05:00 +14°C° 0.2 mm 1 mps 749 mmHg 72%
    06:00 +14°C° 0.2 mm 1 mps 750 mmHg 73%
    07:00 +14°C° 0.2 mm 2 mps 750 mmHg 74%
    08:00 +15°C° 0.1 mm 1 mps 750 mmHg 71%
    09:00 +16°C° 0.1 mm 1 mps 750 mmHg 68%
    10:00 +16°C° 0.1 mm 1 mps 750 mmHg 65%
    11:00 +18°C° 0 mm 1 mps 749 mmHg 63%
    12:00 +19°C° 0 mm 1 mps 749 mmHg 60%
    13:00 +19°C° 0 mm 1 mps 749 mmHg 57%
    14:00 +19°C° 0 mm 1 mps 749 mmHg 59%
    15:00 +19°C° 0 mm 1 mps 749 mmHg 61%
    16:00 +18°C° 0 mm 1 mps 749 mmHg 63%
    17:00 +18°C° 0 mm 1 mps 749 mmHg 65%
    18:00 +16°C° 0 mm 1 mps 749 mmHg 67%
    19:00 +15°C° 0 mm 1 mps 749 mmHg 68%
    20:00 +15°C° 0 mm 1 mps 749 mmHg 69%
    21:00 +15°C° 0 mm 1 mps 750 mmHg 69%
    22:00 +15°C° 0 mm 1 mps 750 mmHg 69%
    23:00 +15°C° 0 mm 1 mps 750 mmHg 71%

    19 October, Friday

    Time Temperature Precipitation Wind Pressure Humidity
    00:00 +14°C° 0 mm 1 mps 750 mmHg 72%
    01:00 +14°C° 0 mm 1 mps 750 mmHg 73%
    02:00 +14°C° 0 mm 1 mps 750 mmHg 76%
    03:00 +13°C° 0 mm 1 mps 750 mmHg 79%
    04:00 +13°C° 0 mm 1 mps 750 mmHg 82%
    05:00 +13°C° 0 mm 1 mps 750 mmHg 83%
    06:00 +12°C° 0 mm 2 mps 750 mmHg 85%
    07:00 +12°C° 0 mm 2 mps 750 mmHg 86%
    08:00 +13°C° 0 mm 2 mps 751 mmHg 81%
    09:00 +14°C° 0 mm 2 mps 751 mmHg 76%
    10:00 +16°C° 0 mm 2 mps 751 mmHg 72%
    11:00 +16°C° 0 mm 3 mps 751 mmHg 70%
    12:00 +17°C° 0 mm 3 mps 751 mmHg 68%
    13:00 +17°C° 0 mm 3 mps 751 mmHg 66%
    14:00 +17°C° 0 mm 3 mps 751 mmHg 69%
    15:00 +16°C° 0 mm 3 mps 751 mmHg 71%
    16:00 +16°C° 0 mm 3 mps 751 mmHg 73%
    17:00 +15°C° 0 mm 2 mps 751 mmHg 77%
    18:00 +14°C° 0 mm 2 mps 751 mmHg 80%
    19:00 +14°C° 0 mm 2 mps 752 mmHg 84%
    20:00 +13°C° 0 mm 2 mps 752 mmHg 85%
    21:00 +13°C° 0 mm 2 mps 752 mmHg 86%
    22:00 +13°C° 0 mm 2 mps 752 mmHg 86%
    23:00 +13°C° 0 mm 2 mps 752 mmHg 87%

    20 October, Saturday

    Time Temperature Precipitation Wind Pressure Humidity
    00:00 +13°C° 0 mm 2 mps 752 mmHg 87%
    01:00 +13°C° 0 mm 2 mps 752 mmHg 88%
    02:00 +12°C° 0.1 mm 3 mps 752 mmHg 87%
    03:00 +12°C° 0.1 mm 3 mps 752 mmHg 87%
    04:00 +11°C° 0.1 mm 3 mps 753 mmHg 86%
    05:00 +11°C° 0 mm 3 mps 753 mmHg 86%
    06:00 +11°C° 0 mm 3 mps 753 mmHg 85%
    07:00 +11°C° 0 mm 3 mps 753 mmHg 85%
    08:00 +11°C° 0 mm 3 mps 754 mmHg 83%
    09:00 +11°C° 0 mm 4 mps 754 mmHg 82%
    10:00 +12°C° 0 mm 4 mps 754 mmHg 81%
    11:00 +12°C° 0 mm 4 mps 754 mmHg 80%
    12:00 +12°C° 0 mm 4 mps 754 mmHg 79%
    13:00 +13°C° 0 mm 4 mps 754 mmHg 78%
    14:00 +12°C° 0 mm 4 mps 755 mmHg 78%
    15:00 +12°C° 0 mm 4 mps 755 mmHg 77%
    16:00 +12°C° 0 mm 4 mps 755 mmHg 76%
    17:00 +12°C° 0 mm 3 mps 755 mmHg 77%
    18:00 +11°C° 0 mm 3 mps 755 mmHg 78%
    19:00 +10°C° 0 mm 2 mps 756 mmHg 79%
    20:00 +10°C° 0 mm 2 mps 756 mmHg 81%
    21:00 +9°C° 0 mm 2 mps 756 mmHg 82%
    22:00 +8°C° 0 mm 2 mps 757 mmHg 83%
    23:00 +8°C° 0 mm 2 mps 757 mmHg 83%

    21 October, Sunday

    Time Temperature Precipitation Wind Pressure Humidity
    00:00 +8°C° 0 mm 2 mps 757 mmHg 83%
    01:00 +7°C° 0 mm 2 mps 757 mmHg 83%
    02:00 +7°C° 0 mm 2 mps 757 mmHg 85%
    03:00 +6°C° 0 mm 2 mps 757 mmHg 87%
    04:00 +5°C° 0 mm 2 mps 757 mmHg 89%
    05:00 +6°C° 0 mm 1 mps 757 mmHg 89%
    06:00 +6°C° 0 mm 1 mps 757 mmHg 90%
    07:00 +6°C° 0 mm 1 mps 757 mmHg 90%
    08:00 +7°C° 0 mm 1 mps 758 mmHg 82%
    09:00 +9°C° 0 mm 1 mps 758 mmHg 74%
    10:00 +11°C° 0 mm 1 mps 758 mmHg 66%
    11:00 +12°C° 0 mm 1 mps 758 mmHg 61%
    12:00 +12°C° 0 mm 1 mps 757 mmHg 56%
    13:00 +13°C° 0 mm 1 mps 757 mmHg 52%
    14:00 +13°C° 0 mm 1 mps 757 mmHg 54%
    15:00 +13°C° 0 mm 1 mps 756 mmHg 56%
    16:00 +12°C° 0 mm 1 mps 756 mmHg 58%
    17:00 +11°C° 0 mm 1 mps 756 mmHg 61%
    18:00 +10°C° 0 mm 1 mps 756 mmHg 64%
    19:00 +9°C° 0 mm 1 mps 756 mmHg 68%
    20:00 +9°C° 0 mm 1 mps 756 mmHg 68%
    21:00 +8°C° 0 mm 1 mps 756 mmHg 69%
    22:00 +8°C° 0 mm 1 mps 755 mmHg 69%
    23:00 +8°C° 0 mm 1 mps 755 mmHg 69%
    Show more